Simultaneous Nadir Overpasses (SNOs) Predictions

Prediction of SNOs between LANDSAT-8 and METOP-B Satellite Orbit:

Table of predicted SNOs for the next 14.0 days since TLE Epoch: 4/4/2020
Index Date (LANDSAT-8) Time (LANDSAT-8) Lat,Lon (LANDSAT-8) SZA (LANDSAT-8 ) Date (METOP-B) Time (METOP-B) Lat,Lon (METOP-B) SZA (METOP-B ) Distance(km) Time Diff (sec)
1 04/04/2020 23:22:52 -81.10, 48.30 103.15 04/04/2020 23:22:39 -81.09, 48.13 103.17 3.04 13
2 04/05/2020 00:12:17 81.13,-143.64 76.91 04/05/2020 00:13:18 81.12,-143.79 76.91 2.65 61
3 04/07/2020 18:57:06 -81.09, 114.58 104.21 04/07/2020 18:57:02 -81.09, 114.51 104.21 1.22 4
4 04/07/2020 19:46:31 81.11, -77.40 75.84 04/07/2020 19:47:41 81.12, -77.42 75.87 0.55 70
5 04/10/2020 13:41:52 81.08, 13.20 74.76 04/10/2020 13:40:44 81.08, 13.30 74.75 1.70 68
6 04/10/2020 14:31:18 -81.10,-178.79 105.20 04/10/2020 14:31:23 -81.10,-178.75 105.19 0.57 5
7 04/13/2020 09:16:06 81.06, 79.45 73.73 04/13/2020 09:15:08 81.06, 79.26 73.69 3.25 58
8 04/13/2020 10:05:31 -81.11,-112.15 106.17 04/13/2020 10:05:45 -81.11,-112.02 106.15 2.16 14
9 04/16/2020 04:50:19 81.07, 146.06 72.77 04/16/2020 04:49:30 81.07, 145.96 72.74 1.77 49




NCC Satellite Simultaneous Nadir Overpasses (SNOs) Prediction Service
